Regional Weather Roundup
Issued by NWS Charleston, WV

Home | Current Version | Previous Version | Graphics & Text | Print | Product List | Glossary On
Versions: 1 2 3 4 5 6 7 8 9 10 11 12 13 14 15 16 17 18 19 20 21 22 23 24 25 26 27 28 29 30 31 32 33 34 35 36 37 38 39 40 41 42 43 44 45 46 47 48 49 50
000
ASUS41 KRLX 020710
RWRRLX
West Virginia Regional Weather Roundup
National Weather Service Charleston WV
300 AM EDT WED SEP 02 2015

Note: "fair" indicates few or no clouds below 12,000 feet with no
significant weather and/or obstructions to visibility.

WVZ003-020800-
Northern Panhandle of West Virginia

CITY           SKY/WX    TMP DP  RH WIND       PRES   REMARKS
WHEELING       PTCLDY    70  67  90 CALM      30.11F FOG
$$

WVZ009-020800-
Northwest West Virginia

CITY           SKY/WX    TMP DP  RH WIND       PRES   REMARKS
PARKERSBURG    PTCLDY    69  66  90 CALM      30.13F
$$

WVZ006-020800-
Western West Virginia

CITY           SKY/WX    TMP DP  RH WIND       PRES   REMARKS
HUNTINGTON     CLEAR     68  68 100 CALM      30.11F FOG
$$

WVZ015-020800-
West Central West Virginia

CITY           SKY/WX    TMP DP  RH WIND       PRES   REMARKS
CHARLESTON     PTCLDY    68  66  93 CALM      30.12S
$$

WVZ022-031-020800-
North Central West Virginia

CITY           SKY/WX    TMP DP  RH WIND       PRES   REMARKS
CLARKSBURG     PTCLDY    68  66  93 CALM      30.13S
MORGANTOWN     CLEAR     71  65  81 CALM      30.13F
$$

WVZ025-035-042-045-020800-
Southern West Virginia

CITY           SKY/WX    TMP DP  RH WIND       PRES   REMARKS
BECKLEY        PTCLDY    64  61  90 CALM      30.20F FOG
LOGAN            N/A     70  68  94 CALM      30.15S FOG
BLUEFIELD      CLEAR     68  62  81 CALM      30.22F
LEWISBURG      FOG       64  63  94 CALM      30.19F VSB 1/2
$$

WVZ047-020800-
Northern Mountains of West Virginia

CITY           SKY/WX    TMP DP  RH WIND       PRES   REMARKS
ELKINS         CLOUDY    65  63  93 CALM      30.18F FOG
$$

WVZ052-020800-
Eastern Panhandle of West Virginia

CITY           SKY/WX    TMP DP  RH WIND       PRES   REMARKS
MARTINSBURG    PTCLDY    70  66  87 CALM      30.06F FOG
PETERSBURG     MOCLDY    67  67  98 CALM      30.11F FOG
$$


USA.gov is the U.S. government's official web portal to all federal, state and local government web resources and services.